Flag for Canada Weather past 2 weeks in Miramichi, New Brunswick, Canada

Now
84 °F

Overcast.


Feels Like: 85 °F
Forecast: 61 / 87 °F
Wind: 9 mph from Southwest

Location: Bathurst Airport

Current Time: Jul 22, 2014 at 8:26:47 PM

Latest Report: Jul 22, 2014 at 1:00 PM


Visibility: 15 mi

Pressure: 29.93 "Hg

Humidity: 48%

Dew point: 63 °F

Location of MiramichiLocation

Historic Weather in Miramichi — Graph

°F

Miramichi temperature yesterday

Maximum temperature yesterday: 79 °F (at 11:00 AM)
Minimum temperature yesterday: 64 °F (at 5:00 AM)
Average temperature yesterday: 71 °F

Past Weeks' High & Low Weather Summary

 TemperatureHumidityPressure
High86 °F (Jul 8, 4:00 PM)100% (Jul 7, 10:53 PM)30.25 "Hg (Jul 7, 10:53 PM)
Low48 °F (Jul 11, 6:00 AM)35% (Jul 12, 3:00 PM)29.59 "Hg (Jul 8, 3:00 PM)
Average70 °F71%29.91 "Hg
* Reported Jul 7 1:00 PM — Jul 22 1:00 PM, Miramichi, Weather by CustomWeather, © 2014

Note: Actual official high and low records may vary slightly from our data, if they occured in-between our weather recording intervals... More about our weather records

Advertising

Miramichi weather history for previous 24 hours

 ConditionsComfort  
Time TempWeatherWind HumidityBarometerVisibility
1:00 PM
Jul 22
84 °FOvercast.9 mph48%29.93 "Hg15 mi
12:00 PM81 °FOvercast.5 mph62%29.96 "Hg15 mi
11:00 AM77 °FPartly sunny.6 mph65%29.99 "Hg15 mi
10:00 AM75 °FScattered clouds.3 mph69%30.01 "Hg15 mi
9:00 AM68 °FPassing clouds.2 mph78%30.00 "Hg15 mi
8:00 AM63 °FScattered clouds.3 mph88%29.99 "Hg15 mi
7:00 AM59 °FSunny.No wind94%30.01 "Hg15 mi
6:00 AM55 °FPassing clouds.3 mph100%30.01 "Hg15 mi
5:00 AM57 °FClear.No wind94%30.01 "Hg15 mi
4:00 AM59 °FClear.5 mph94%30.02 "Hg15 mi
3:00 AM61 °FClear.3 mph88%30.03 "Hg15 mi
2:00 AM63 °FClear.5 mph88%30.04 "Hg15 mi
1:00 AM64 °FClear.5 mph83%30.05 "Hg15 mi
12:00 AM66 °FPassing clouds.3 mph83%30.06 "Hg15 mi
11:00 PM
Jul 21
66 °FClear.6 mph94%30.07 "Hg15 mi
10:00 PM66 °FPartly sunny.3 mph94%30.08 "Hg12 mi
9:00 PM70 °FScattered clouds.2 mph83%30.06 "Hg12 mi
8:00 PM72 °FBroken clouds.2 mph78%30.07 "Hg12 mi
Weather by CustomWeather, © 2014

See weather overviewHow to use our weather pages